Volver al catálogo

STARLINK-36858

ActivoComunicacionesSSO
NORAD 68021·PAYLOAD·🇺🇸 United States

Lanzado Mar 1, 2026 desde Vandenberg Space Force Base

Loading…

Próximos Pases (próximas 24 horas)

TLE

ActualizadoSource: CelesTrak SupGP

Época: Sep 14, 2026, 22:28 UTC

1 68021C 26040G   26257.93659722 -.00055328  00000+0 -17178-2 0  2571
2 68021  97.2855 205.3257 0001763  90.9455 259.6475 15.33462137    12

Sigue STARLINK-36858 en tiempo real con AllMySat

Download on the App Store